• In United Kingdom
  • List of Countries
  • For 7 days
  • Water Temperature
  • Satellite Maps
  • Weather Map
  • Weather Widgets
  • user-avatar
    Login

    Hourly Weather Erd

    Today, 19 September, Wednesday

    Time Temperature Precipitation Wind Pressure Humidity
    00:00 +20°C° 0 mm 1 mps 755 mmHg 50%
    01:00 +20°C° 0 mm 1 mps 755 mmHg 50%
    02:00 +19°C° 0 mm 1 mps 755 mmHg 52%
    03:00 +19°C° 0 mm 1 mps 755 mmHg 54%
    04:00 +18°C° 0 mm 1 mps 755 mmHg 56%
    05:00 +18°C° 0 mm 2 mps 755 mmHg 56%
    06:00 +18°C° 0 mm 2 mps 755 mmHg 56%
    07:00 +19°C° 0 mm 2 mps 756 mmHg 54%
    08:00 +21°C° 0 mm 2 mps 756 mmHg 50%
    09:00 +24°C° 0 mm 2 mps 756 mmHg 46%
    10:00 +26°C° 0 mm 2 mps 756 mmHg 41%
    11:00 +27°C° 0 mm 2 mps 756 mmHg 38%
    12:00 +29°C° 0 mm 2 mps 755 mmHg 35%
    13:00 +30°C° 0 mm 2 mps 755 mmHg 32%
    14:00 +30°C° 0 mm 1 mps 755 mmHg 31%
    15:00 +30°C° 0 mm 1 mps 754 mmHg 31%
    16:00 +30°C° 0 mm 1 mps 754 mmHg 30%
    17:00 +28°C° 0 mm 1 mps 754 mmHg 34%
    18:00 +26°C° 0 mm 1 mps 754 mmHg 38%
    19:00 +24°C° 0 mm 1 mps 755 mmHg 42%
    20:00 +23°C° 0 mm 1 mps 755 mmHg 44%
    21:00 +23°C° 0 mm 1 mps 755 mmHg 46%
    22:00 +22°C° 0 mm 1 mps 755 mmHg 48%
    23:00 +22°C° 0 mm 1 mps 755 mmHg 50%

    Tomorrow, 20 September, Thursday

    Time Temperature Precipitation Wind Pressure Humidity
    00:00 +21°C° 0 mm 1 mps 755 mmHg 53%
    01:00 +21°C° 0 mm 1 mps 755 mmHg 55%
    02:00 +20°C° 0 mm 1 mps 755 mmHg 57%
    03:00 +20°C° 0 mm 1 mps 755 mmHg 59%
    04:00 +19°C° 0 mm 1 mps 755 mmHg 61%
    05:00 +20°C° 0 mm 1 mps 755 mmHg 60%
    06:00 +20°C° 0 mm 1 mps 755 mmHg 59%
    07:00 +21°C° 0 mm 1 mps 755 mmHg 58%
    08:00 +23°C° 0 mm 1 mps 756 mmHg 52%
    09:00 +25°C° 0 mm 1 mps 756 mmHg 45%
    10:00 +27°C° 0 mm 1 mps 756 mmHg 39%
    11:00 +28°C° 0 mm 1 mps 755 mmHg 37%
    12:00 +30°C° 0 mm 1 mps 755 mmHg 34%
    13:00 +31°C° 0 mm 1 mps 755 mmHg 31%
    14:00 +30°C° 0 mm 1 mps 754 mmHg 30%
    15:00 +30°C° 0 mm 1 mps 754 mmHg 30%
    16:00 +30°C° 0 mm 1 mps 754 mmHg 30%
    17:00 +28°C° 0 mm 1 mps 754 mmHg 33%
    18:00 +26°C° 0 mm 1 mps 754 mmHg 37%
    19:00 +24°C° 0 mm 1 mps 754 mmHg 41%
    20:00 +24°C° 0 mm 1 mps 754 mmHg 43%
    21:00 +23°C° 0 mm 1 mps 754 mmHg 44%
    22:00 +22°C° 0 mm 1 mps 754 mmHg 46%
    23:00 +22°C° 0 mm 1 mps 754 mmHg 47%

    Day after tomorrow, 21 September, Friday

    Time Temperature Precipitation Wind Pressure Humidity
    00:00 +21°C° 0 mm 1 mps 754 mmHg 48%
    01:00 +21°C° 0 mm 1 mps 754 mmHg 49%
    02:00 +21°C° 0 mm 1 mps 754 mmHg 50%
    03:00 +20°C° 0 mm 1 mps 753 mmHg 51%
    04:00 +20°C° 0 mm 1 mps 753 mmHg 51%
    05:00 +20°C° 0 mm 1 mps 753 mmHg 50%
    06:00 +21°C° 0 mm 1 mps 753 mmHg 49%
    07:00 +21°C° 0 mm 1 mps 753 mmHg 48%
    08:00 +24°C° 0 mm 2 mps 753 mmHg 42%
    09:00 +26°C° 0 mm 2 mps 753 mmHg 36%
    10:00 +28°C° 0 mm 3 mps 753 mmHg 31%
    11:00 +29°C° 0 mm 3 mps 753 mmHg 28%
    12:00 +30°C° 0 mm 3 mps 752 mmHg 26%
    13:00 +32°C° 0 mm 4 mps 752 mmHg 24%
    14:00 +31°C° 0 mm 3 mps 752 mmHg 23%
    15:00 +31°C° 0 mm 3 mps 751 mmHg 23%
    16:00 +31°C° 0 mm 3 mps 751 mmHg 23%
    17:00 +29°C° 0 mm 3 mps 751 mmHg 25%
    18:00 +27°C° 0 mm 2 mps 751 mmHg 28%
    19:00 +25°C° 0 mm 2 mps 751 mmHg 30%
    20:00 +24°C° 0 mm 2 mps 752 mmHg 31%
    21:00 +23°C° 0 mm 2 mps 752 mmHg 33%
    22:00 +21°C° 0 mm 2 mps 752 mmHg 34%
    23:00 +21°C° 0 mm 2 mps 752 mmHg 36%

    22 September, Saturday

    Time Temperature Precipitation Wind Pressure Humidity
    00:00 +20°C° 0 mm 2 mps 751 mmHg 39%
    01:00 +21°C° 0 mm 1 mps 751 mmHg 41%
    02:00 +20°C° 0 mm 1 mps 751 mmHg 43%
    03:00 +20°C° 0 mm 1 mps 751 mmHg 45%
    04:00 +19°C° 0 mm 1 mps 751 mmHg 47%
    05:00 +20°C° 0 mm 1 mps 751 mmHg 47%
    06:00 +20°C° 0 mm 1 mps 751 mmHg 48%
    07:00 +20°C° 0 mm 2 mps 752 mmHg 49%
    08:00 +21°C° 0 mm 3 mps 752 mmHg 47%
    09:00 +22°C° 0 mm 5 mps 753 mmHg 46%
    10:00 +23°C° 0 mm 6 mps 753 mmHg 44%
    11:00 +23°C° 0 mm 7 mps 753 mmHg 44%
    12:00 +22°C° 0 mm 8 mps 753 mmHg 43%
    13:00 +22°C° 0 mm 8 mps 753 mmHg 43%
    14:00 +20°C° 0 mm 8 mps 753 mmHg 46%
    15:00 +17°C° 0 mm 8 mps 753 mmHg 48%
    16:00 +16°C° 0 mm 8 mps 753 mmHg 51%
    17:00 +15°C° 0.2 mm 8 mps 754 mmHg 55%
    18:00 +14°C° 0.2 mm 7 mps 755 mmHg 59%
    19:00 +13°C° 0.2 mm 6 mps 755 mmHg 63%
    20:00 +11°C° 0.7 mm 6 mps 756 mmHg 68%
    21:00 +10°C° 0.7 mm 5 mps 757 mmHg 73%
    22:00 +11°C° 0.7 mm 4 mps 757 mmHg 78%
    23:00 +11°C° 0.1 mm 4 mps 757 mmHg 78%

    23 September, Sunday

    Time Temperature Precipitation Wind Pressure Humidity
    00:00 +11°C° 0.1 mm 4 mps 757 mmHg 78%
    01:00 +11°C° 0.1 mm 3 mps 757 mmHg 78%
    02:00 +11°C° 0 mm 3 mps 757 mmHg 79%
    03:00 +12°C° 0 mm 2 mps 757 mmHg 80%
    04:00 +12°C° 0 mm 2 mps 757 mmHg 80%
    05:00 +12°C° 0 mm 2 mps 757 mmHg 79%
    06:00 +12°C° 0 mm 2 mps 758 mmHg 78%
    07:00 +13°C° 0 mm 1 mps 758 mmHg 77%
    08:00 +14°C° 0 mm 1 mps 757 mmHg 68%
    09:00 +16°C° 0 mm 1 mps 757 mmHg 60%
    10:00 +19°C° 0 mm 1 mps 757 mmHg 51%
    11:00 +19°C° 0 mm 2 mps 756 mmHg 46%
    12:00 +20°C° 0 mm 2 mps 755 mmHg 41%
    13:00 +21°C° 0 mm 3 mps 754 mmHg 36%
    14:00 +22°C° 0 mm 3 mps 754 mmHg 35%
    15:00 +22°C° 0 mm 4 mps 753 mmHg 35%
    16:00 +22°C° 0 mm 4 mps 752 mmHg 35%
    17:00 +21°C° 0 mm 4 mps 751 mmHg 37%
    18:00 +20°C° 0 mm 4 mps 751 mmHg 39%
    19:00 +19°C° 0 mm 4 mps 750 mmHg 41%
    20:00 +19°C° 0 mm 5 mps 749 mmHg 41%
    21:00 +19°C° 0 mm 5 mps 749 mmHg 41%
    22:00 +17°C° 0 mm 5 mps 748 mmHg 41%
    23:00 +17°C° 0 mm 5 mps 747 mmHg 43%

    24 September, Monday

    Time Temperature Precipitation Wind Pressure Humidity
    00:00 +17°C° 0 mm 5 mps 746 mmHg 44%
    01:00 +17°C° 0 mm 5 mps 745 mmHg 46%
    02:00 +19°C° 0.1 mm 5 mps 745 mmHg 51%
    03:00 +19°C° 0.1 mm 5 mps 745 mmHg 56%
    04:00 +19°C° 0.1 mm 5 mps 745 mmHg 61%
    05:00 +19°C° 0.2 mm 4 mps 745 mmHg 64%
    06:00 +19°C° 0.2 mm 3 mps 745 mmHg 67%
    07:00 +18°C° 0.2 mm 2 mps 745 mmHg 71%
    08:00 +18°C° 0 mm 3 mps 745 mmHg 68%
    09:00 +18°C° 0 mm 4 mps 745 mmHg 65%
    10:00 +18°C° 0 mm 4 mps 745 mmHg 62%
    11:00 +16°C° 0.3 mm 5 mps 745 mmHg 65%
    12:00 +14°C° 0.3 mm 6 mps 745 mmHg 68%
    13:00 +12°C° 0.3 mm 7 mps 745 mmHg 71%
    14:00 +11°C° 1.8 mm 7 mps 745 mmHg 74%
    15:00 +11°C° 1.8 mm 7 mps 746 mmHg 77%
    16:00 +10°C° 1.8 mm 7 mps 746 mmHg 80%
    17:00 +11°C° 0.8 mm 7 mps 747 mmHg 78%
    18:00 +11°C° 0.8 mm 7 mps 748 mmHg 76%
    19:00 +11°C° 0.8 mm 7 mps 749 mmHg 73%
    20:00 +11°C° 0.2 mm 6 mps 749 mmHg 73%
    21:00 +11°C° 0.2 mm 6 mps 750 mmHg 72%
    22:00 +10°C° 0.2 mm 6 mps 751 mmHg 72%
    23:00 +10°C° 0 mm 6 mps 751 mmHg 73%
    Show more